Regional Weather Roundup
Issued by NWS Mt. Holly, NJ

Home | Current Version | Previous Version | Text Only | Print | Product List | Glossary On
Versions: 1 2 3 4 5 6 7 8 9 10 11 12 13 14 15 16 17 18 19 20 21 22 23 24 25 26 27 28 29 30 31 32 33 34 35 36 37 38 39 40 41 42 43 44 45 46 47 48 49 50
000
ASUS41 KPHI 260711
RWRPHI

REGIONAL WEATHER ROUNDUP
NATIONAL WEATHER SERVICE MOUNT HOLLY NJ
300 AM EDT SUN APR 26 2015

NOTE:  "FAIR" INDICATES FEW OR NO CLOUDS BELOW 12,000 FEET WITH NO
SIGNIFICANT WEATHER AND/OR OBSTRUCTIONS TO VISIBILITY.

 * = STATION DOES NOT REPORT PRECIPITATION (E.G. RAIN, SNOW, ETC.)
        OR FOG.

NJZ015>026-260800-
SOUTHERN NEW JERSEY

CITY           SKY/WX    TMP DP  RH WIND       PRES   REMARKS
POMONA         CLOUDY    46  35  65 W3        29.66F
MILLVILLE      CLOUDY    46  39  76 W5        29.66F
WRIGHTSTOWN    PTCLDY    38  31  76 CALM      29.63F
MOUNT HOLLY    PTCLDY    41  34  76 CALM      29.66F
TRENTON        PTCLDY    47  26  44 NE8       29.65F

$$
NJZ001>014-260800-
NORTHERN NEW JERSEY

CITY           SKY/WX    TMP DP  RH WIND       PRES   REMARKS
SUSSEX         CLEAR     32  26  78 CALM      29.70S
ANDOVER*         N/A     37  30  75 CALM      29.68F
MORRISTOWN     PTCLDY    41  32  70 CALM      29.68F
NEWARK         MOCLDY    46  29  51 N9        29.68S
TETERBORO      PTCLDY    47  27  45 N6        29.67F
CALDWELL       PTCLDY    43  28  55 CALM      29.68F
SOMERVILLE     PTCLDY    38  32  79 CALM      29.66F
ALLAIRE*       PTCLDY    45  28  53 N6        29.65F
TOMS RIVER*    MOCLDY    37  34  87 CALM      29.66R

$$
PAZ043-044-047-054-055-060>062-066>071-260800-
EASTERN PENNSYLVANIA

CITY           SKY/WX    TMP DP  RH WIND       PRES   REMARKS
PHILADELPHIA   PTCLDY    48  34  58 W3        29.67F
NORTH PHILA    PTCLDY    46  26  45 N8        29.68F
BLUE BELL      CLEAR     45  32  61 CALM      29.66F
DOYLESTOWN     PTCLDY    41  26  55 NE3       29.66F
QUAKERTOWN*    PTCLDY    41  27  56 N3        29.68F
POTTSTOWN      CLEAR     43  27  53 N6        29.68F
LANCASTER      CLEAR     38  29  70 W7        29.68S WCI  33
COATESVILLE    CLEAR     43  30  61 N6        29.67S
READING        PTCLDY    42  28  57 N5        29.68S
ALLENTOWN      PTCLDY    38  27  64 N3        29.69S
MOUNT POCONO   CLEAR     36  24  62 N9        29.66S WCI  29
HAZLETON       CLEAR     37  27  65 N3        29.71S
WILKES BARRE   CLEAR     34  25  69 CALM      29.69F

$$
DEZALL-MDZ008-012-015-019-020-260800-
DELAWARE AND EASTERN MARYLAND

CITY           SKY/WX    TMP DP  RH WIND       PRES   REMARKS
WILMINGTON     PTCLDY    44  36  73 W5        29.68F
DOVER          CLOUDY    45  44  95 W6        29.63F
GEORGETOWN     CLOUDY    42  40  92 CALM      29.67F
EASTON         MOCLDY    44  44 100 N5        29.71S
PATUXENT       CLOUDY    44  40  85 NE6       29.67F
OCEAN CITY     CLOUDY    43  41  93 CALM      29.66F
WALLOPS ISLAND LGT RAIN  43  41  93 N9        29.66F
CAMBRIDGE      CLOUDY    43  41  93 CALM      29.66F
SALISBURY      CLOUDY    42  40  92 S3        29.66F

$$
PAZ001-021-NYZ056-072-MDZ011-DCZ001-260800-
OTHER NEARBY LOCATIONS

CITY           SKY/WX    TMP DP  RH WIND       PRES   REMARKS
HARRISBURG     MOCLDY    43  31  62 NW12      29.69S
STATE COLLEGE  PTCLDY    38  27  63 CALM      29.71S
WILLIAMSPORT   PTCLDY    38  26  62 CALM      29.73S
BINGHAMTON     CLEAR     34  25  69 N8        29.70S WCI  27
NEW YORK CITY  PTCLDY    49  27  42 VRB6      29.70S
BALTIMORE      CLOUDY    42  40  92 W3        29.68F
WASHINGTON DC  CLOUDY    46  39  76 CALM      29.69F

$$


USA.gov is the U.S. government's official web portal to all federal, state and local government web resources and services.